Regional Weather Roundup
Issued by NWS

Home | Current Version | Previous Version | Text Only | Print | Product List | Glossary Off
Versions: 1 2 3 4 5 6 7 8 9 10 11 12 13 14 15 16 17 18 19 20 21 22 23 24 25 26 27 28 29 30 31 32 33 34 35 36 37 38 39 40 41 42 43 44 45 46 47 48 49 50

000
ASUS43 KLSX 011107
RWRMO

WEATHER SUMMARY FOR MISSOURI
NATIONAL WEATHER SERVICE SPRINGFIELD MO
600 AM CDT TUE SEP 01 2015

NOTE: "FAIR" INDICATES FEW OR NO CLOUDS BELOW 12,000 FEET WITH NO
       SIGNIFICANT WEATHER AND/OR OBSTRUCTIONS TO VISIBILITY.
       CURRENT SKY AND/OR WEATHER CONDITIONS ARE NOT AVAILABLE FOR
       CHILLICOTHE AND FARMINGTON.

MOZ001>031-035>038-043-044-053-054-011200-
...NORTHERN AND WESTERN MISSOURI...

CITY           SKY/WX    TMP DP  RH WIND       PRES   REMARKS
KANSAS CTY INT CLEAR     73  68  84 S10       30.01R
KANSAS C DTWN  PTCLDY    75  68  78 S8        30.01R
LEE`S SUMMIT   MOCLDY    73  67  81 S9        30.03R
ST JOSEPH      CLEAR     72  69  90 S7        29.99R
CHILLICOTHE      N/A     70  68  93 CALM      30.03R
KIRKSVILLE     CLEAR     71  67  87 S6        30.05R

$$
MOZ066>068-077>081-088>096-101>105-011200-
...SOUTHWEST MISSOURI...

CITY           SKY/WX    TMP DP  RH WIND       PRES   REMARKS
SPRINGFIELD    CLEAR     70  66  87 SE10      30.09R
JOPLIN         CLEAR     71  66  84 S8        30.06S

$$
MOZ032>034-039>042-045>050-055>058-069>072-011200-
...CENTRAL MISSOURI...

CITY           SKY/WX    TMP DP  RH WIND       PRES   REMARKS
COLUMBIA       CLEAR     70  68  93 S7        30.08R
JEFFERSON CITY CLEAR     71  67  87 SE3       30.07R
ROLLA          CLEAR     71  68  90 S9        30.09R
SEDALIA        CLEAR     71  66  84 S8        30.07R
WHITEMAN AFB   CLEAR     70  66  88 S7        30.04R
WARRENSBURG    CLEAR     70  64  83 SE6       30.04R
OSAGE BEACH    CLEAR     70  66  88 SE5       30.08S

$$
MOZ051-052-059>065-011200-
...EAST CENTRAL MISSOURI...

CITY           SKY/WX    TMP DP  RH WIND       PRES   REMARKS
ST LOUIS INTL  PTCLDY    75  69  81 S3        30.09R
SPIRIT OF STL  CLEAR     70  69  97 CALM      30.07R
ST CHARLES     CLEAR     70  70 100 E3        30.07R FOG

$$
MOZ072>076-082>087-097>100-106>115-011200-
...SOUTH CENTRAL AND SOUTHEAST MISSOURI...

CITY           SKY/WX    TMP DP  RH WIND       PRES   REMARKS
CAPE GIRARDEAU CLEAR     67  66  97 SE3       30.10R
FARMINGTON     CLEAR     70  66  88 CALM      30.14R
POPLAR BLUFF   CLEAR     67  66  97 CALM      30.09R FOG
WEST PLAINS    CLEAR     70  66  87 CALM      30.13R

$$



USA.gov is the U.S. government's official web portal to all federal, state and local government web resources and services.